Tracking 35331 objects as of 14-Sep-2026
HD Live streaming from Space Station
objects crossing your sky now

STARLINK-30793

Track STARLINK-30793 now!
10-day predictions
STARLINK-30793 is classified as:


NORAD ID: 58185
Int'l Code: 2023-167L
Launch date: October 30, 2023
Source: United States (US)
Launch site: AIR FORCE EASTERN TEST RANGE (AFETR)
Your satellite tracking list
Your tracking list is empty




NASA's NSSDC Master Catalog

Two Line Element Set (TLE):
1 58185U 23167L   26256.92773379 -.00000370  00000-0 -39173-5 0  9994
2 58185  43.0052 160.3290 0001658 269.7149  90.3513 15.27575656159771
Source of the keplerian elements: AFSPC